Simultaneous Nadir Overpasses (SNOs) Predictions

Prediction of SNOs between METOP-A and TERRA Satellite Orbit:

Table of predicted SNOs for the next 14.0 days since TLE Epoch: 8/24/2019
Index Date (METOP-A) Time (METOP-A) Lat,Lon (METOP-A) SZA (METOP-A ) Date (TERRA) Time (TERRA) Lat,Lon (TERRA) SZA (TERRA ) Distance(km) Time Diff (sec)
1 08/25/2019 05:25:28 -81.45, -31.55 106.38 08/25/2019 05:26:21 -81.45, -31.53 106.35 0.52 53
2 08/25/2019 06:16:08 81.45, 136.07 73.67 08/25/2019 06:15:48 81.44, 135.90 73.64 2.87 20
3 08/28/2019 00:59:53 -81.45, 34.73 105.40 08/28/2019 01:00:36 -81.44, 34.65 105.39 1.63 43
4 08/28/2019 01:50:33 81.45,-157.68 74.65 08/28/2019 01:50:02 81.45,-157.55 74.65 2.14 31
5 08/30/2019 20:34:17 -81.45, 101.01 104.39 08/30/2019 20:34:49 -81.45, 101.20 104.36 3.23 32
6 08/30/2019 21:24:56 81.44, -91.04 75.69 08/30/2019 21:24:15 81.45, -91.04 75.68 0.93 41
7 09/02/2019 16:08:41 -81.45, 167.67 103.33 09/02/2019 16:09:03 -81.45, 167.71 103.31 0.75 22
8 09/02/2019 16:59:21 81.44, -24.81 76.71 09/02/2019 16:58:30 81.44, -24.94 76.66 2.43 51
9 09/05/2019 11:43:05 -81.44,-125.68 102.24 09/05/2019 11:43:17 -81.45,-125.81 102.25 2.30 12




NCC Satellite Simultaneous Nadir Overpasses (SNOs) Prediction Service
